Gewässerkundlicher Dienst Bayern

Aktuelle Messwerte Ammerseeboje

Globalstrahlung vom 10.01.2022 bis zum 16.01.2022
Besonderheit an dieser Messstelle
Aufgrund der besonderen Lage direkt im Wasser sind bei einzelnen Parametern (z.B. Relative Luftfeuchte) andere Messergebnisse zu erwarten als bei einer vergleichbaren Station auf dem Land.
Die Erfassung der meteorologischen Daten geschieht teilweise unter anderen technischen Rahmenbedingungen als an den normalen Wetterstationen:

Lufttemperatur, Relative Luftfeuchte, Luftdruck
Die Messung erfolgt in etwa 1,8 m Höhe über dem Wasserspiegel.

Windgeschwindigkeit
Die Messung erfolgt in etwa 1,8 m Höhe über dem Wasserspiegel. Die Messergebnisse werden nicht auf eine andere Masthöhe extrapoliert.

Globalstrahlung
Der Spektralbereich der Messung erfasst Wellenlängen zwischen etwa 0,3 bis 1,1 µm. Aufgrund von Bewegungen der Boje (Störung der lotrechten Position) können die Messwerte beeinflusst sein.

weiterführende Fachinformationen

BeginnEnde
Globalstrahlung vom 10.01.2022 bis zum 16.01.2022
DatumGlobalstrahlung [W/m²]
16.01.2022 23:000,1
16.01.2022 22:000,1
16.01.2022 21:000,1
16.01.2022 20:000,1
16.01.2022 19:000,1
16.01.2022 18:000,1
16.01.2022 17:000,7
16.01.2022 16:0032,9
16.01.2022 15:00119,6
16.01.2022 14:00205,5
16.01.2022 13:00248,2
16.01.2022 12:00276,3
16.01.2022 11:00238,8
16.01.2022 10:00149,4
16.01.2022 09:0054,3
16.01.2022 08:0010,4
16.01.2022 07:000,1
16.01.2022 06:000,1
16.01.2022 05:000,1
16.01.2022 04:000,1
16.01.2022 03:000,1
16.01.2022 02:000,1
16.01.2022 01:000,1
16.01.2022 00:000,1
15.01.2022 23:000,1
15.01.2022 22:000,1
15.01.2022 21:000,1
15.01.2022 20:000,1
15.01.2022 19:000,1
15.01.2022 18:000,1
15.01.2022 17:001,1
15.01.2022 16:0022,2
15.01.2022 15:0059,3
15.01.2022 14:0077,8
15.01.2022 13:00112,2
15.01.2022 12:00118,9
15.01.2022 11:00109,1
15.01.2022 10:0080,8
15.01.2022 09:0036,2
15.01.2022 08:007,1
15.01.2022 07:000,1
15.01.2022 06:000,1
15.01.2022 05:000,1
15.01.2022 04:000,1
15.01.2022 03:000,1
15.01.2022 02:000,1
15.01.2022 01:000,1
15.01.2022 00:000,1
14.01.2022 23:000,1
14.01.2022 22:000,1
14.01.2022 21:000,1
14.01.2022 20:000,1
14.01.2022 19:000,1
14.01.2022 18:000,1
14.01.2022 17:001,1
14.01.2022 16:0045,0
14.01.2022 15:00125,7
14.01.2022 14:00199,6
14.01.2022 13:00252,0
14.01.2022 12:00271,8
14.01.2022 11:00252,0
14.01.2022 10:00164,2
14.01.2022 09:0092,3
14.01.2022 08:0017,2
14.01.2022 07:000,1
14.01.2022 06:000,1
14.01.2022 05:000,1
14.01.2022 04:000,1
14.01.2022 03:000,1
14.01.2022 02:000,1
14.01.2022 01:000,1
14.01.2022 00:000,1
13.01.2022 23:000,1
13.01.2022 22:000,1
13.01.2022 21:000,1
13.01.2022 20:000,1
13.01.2022 19:000,1
13.01.2022 18:000,1
13.01.2022 17:001,7
13.01.2022 16:0032,8
13.01.2022 15:00107,1
13.01.2022 14:00194,1
13.01.2022 13:00262,6
13.01.2022 12:00224,2
13.01.2022 11:00127,2
13.01.2022 10:0074,2
13.01.2022 09:0028,3
13.01.2022 08:006,3
13.01.2022 07:000,1
13.01.2022 06:000,1
13.01.2022 05:000,1
13.01.2022 04:000,1
13.01.2022 03:000,1
13.01.2022 02:000,1
13.01.2022 01:000,1
13.01.2022 00:000,1
12.01.2022 23:000,1
12.01.2022 22:000,1
12.01.2022 21:000,1
12.01.2022 20:000,1
12.01.2022 19:000,1
12.01.2022 18:000,1
12.01.2022 17:000,7
12.01.2022 16:0037,3
12.01.2022 15:00107,2
12.01.2022 14:00161,0
12.01.2022 13:00244,5
12.01.2022 12:00266,3
12.01.2022 11:00223,1
12.01.2022 10:00155,7
12.01.2022 09:0049,6
12.01.2022 08:009,5
12.01.2022 07:000,1
12.01.2022 06:000,1
12.01.2022 05:000,1
12.01.2022 04:000,1
12.01.2022 03:000,1
12.01.2022 02:000,1
12.01.2022 01:000,1
12.01.2022 00:000,1
11.01.2022 23:000,1
11.01.2022 22:000,1
11.01.2022 21:000,1
11.01.2022 20:000,1
11.01.2022 19:000,1
11.01.2022 18:000,1
11.01.2022 17:000,4
11.01.2022 16:0014,9
11.01.2022 15:0030,5
11.01.2022 14:0069,6
11.01.2022 13:00105,7
11.01.2022 12:00110,4
11.01.2022 11:00116,8
11.01.2022 10:00131,3
11.01.2022 09:00111,9
11.01.2022 08:0011,3
11.01.2022 07:000,1
11.01.2022 06:000,1
11.01.2022 05:000,1
11.01.2022 04:000,1
11.01.2022 03:000,1
11.01.2022 02:000,1
11.01.2022 01:000,1
11.01.2022 00:000,1
10.01.2022 23:000,1
10.01.2022 22:000,1
10.01.2022 21:000,1
10.01.2022 20:000,1
10.01.2022 19:000,1
10.01.2022 18:000,1
10.01.2022 17:000,2
10.01.2022 16:0011,3
10.01.2022 15:0032,3
10.01.2022 14:0047,5
10.01.2022 13:0083,0
10.01.2022 12:0048,2
10.01.2022 11:0082,2
10.01.2022 10:0060,0
10.01.2022 09:0028,9
10.01.2022 08:003,4
10.01.2022 07:000,1
10.01.2022 06:000,1
10.01.2022 05:000,1
10.01.2022 04:000,1
10.01.2022 03:000,1
10.01.2022 02:000,1
10.01.2022 01:000,1
10.01.2022 00:000,1
Ihre Auswahl wurde erfolgreich in den Download-Korb gelegt.